Regional Weather Roundup
Issued by NWS

Home | Current Version | Previous Version | Text Only | Print | Product List | Glossary Off
Versions: 1 2 3 4 5 6 7 8 9 10 11 12 13 14 15 16 17 18 19 20 21 22 23 24 25 26 27 28 29 30 31 32 33 34 35 36 37 38 39 40 41 42 43 44 45 46 47 48 49 50

000
ASUS43 KMPX 251701
RWRMN
WEATHER ROUNDUP FOR MINNESOTA
NATIONAL WEATHER SERVICE TWIN CITIES/CHANHASSEN MN
1100 AM CST TUE NOV 25 2014


NOTE: "FAIR" INDICATES FEW OR NO CLOUDS BELOW 12,000 FEET WITH NO
SIGNIFICANT WEATHER AND/OR OBSTRUCTIONS TO VISIBILITY. N/A MEANS
CURRENT SKY AND/OR WEATHER CONDITIONS ARE NOT AVAILABLE.

MNZ060>063-068>070-251800-
   Twin Cities Metro

CITY           SKY/WX    TMP DP  RH WIND       PRES   REMARKS
TWIN CITIES    PTSUNNY   17   9  70 SW5       30.08R WCI  10
ST PAUL        CLOUDY    18  11  74 W7        30.10R WCI   9
CRYSTAL        CLOUDY    18   9  68 CALM      30.07R
BLAINE         CLOUDY    18  10  73 SW5       30.07R WCI  11
LAKEVILLE      FAIR      18  10  73 W5        30.07R WCI  11
EDEN PRAIRIE   CLOUDY    18  10  71 S6        30.07R WCI  10
SOUTH ST PAUL  PTSUNNY   19  11  70 SW5       30.08R WCI  12
LAKE ELMO      PTSUNNY   21  14  73 W7        30.08R WCI  13
$$
MNZ001>005-007-008-013>017-022>024-027-028-251800-
   Northwest Minnesota

CITY           SKY/WX    TMP DP  RH WIND       PRES   REMARKS
BEMIDJI        CLOUDY    15   7  71 S3        29.94S
HALLOCK        CLOUDY    16  10  79 N7        29.98R WCI   6
ROSEAU         FLURRIES  16  10  79 W3        29.96R
WARROAD        FLURRIES  12   9  85 W6        29.96R WCI   3
THIEF RVR FALL MOSUNNY   18   9  68 CALM      29.96S
CROOKSTON      PTSUNNY   18  12  79 CALM      29.98F
FOSSTON        CLOUDY    16   9  73 SW3       29.96R
DETROIT LAKES  CLOUDY    21  14  73 S5        29.96R WCI  15
MOORHEAD       PTSUNNY   23  19  86 S7        29.97F WCI  15
PARK RAPIDS    CLOUDY    16   9  74 S5        29.95F WCI   9
MAHNOMEN       CLOUDY    19  10  70 S6        29.95S WCI  10
$$
MNZ006-009>011-018-025>026-251800-
   North Central Minnesota

CITY           SKY/WX    TMP DP  RH WIND       PRES   REMARKS
BAUDETTE       CLOUDY     9   3  77 CALM      29.94S
FLAG ISLAND    CLOUDY     9   1  72 CALM      29.95R
INTL FALLS     PTSUNNY   11   4  73 W5        29.96R WCI   3
WASKISH        CLOUDY    14   9  79 CALM      29.95S
BIG FORK       SUNNY     16   7  67 SW3       29.96S
LONGVILLE      CLOUDY    14   9  79 CALM      29.97F
GRAND RAPIDS   CLOUDY    10   7  85 W5        29.97R WCI   2
CRANE LAKE     MOSUNNY   10   5  79 CALM      29.99R
ORR            MOSUNNY   10   3  72 CALM      29.94R
COOK           PTSUNNY   12   7  79 W5        29.96R WCI   4
WALKER         CLOUDY    13   5  71 CALM      29.96F
$$
MNZ012-019>021-037-251800-
   Northeast Minnesota

CITY           SKY/WX    TMP DP  RH WIND       PRES   REMARKS
DULUTH         MOSUNNY   16   8  71 CALM      29.96R
ELY            FLURRIES  12   9  85 S7        29.94R WCI   2
HIBBING        MOSUNNY   14   6  70 VRB3      29.96R
EVELETH        SUNNY     12   9  85 CALM      29.96F
DULUTH HARBOR  SUNNY     18  10  73 CALM      30.04S
TWO HARBORS    SUNNY     21  12  68 SW6       29.96S WCI  14
SILVER BAY     SUNNY     21   9  58 CALM      29.95S
GRAND MARAIS     N/A     20  11  68 SW10      29.98S WCI   9
G MARAIS ARPRT SUNNY     14   3  62 NW3       29.88R
$$
MNZ029>031-032-039>041-046>048-054>057-064-251800-
   West Central Minnesota

CITY           SKY/WX    TMP DP  RH WIND       PRES   REMARKS
FERGUS FALLS   CLOUDY    18   9  68 S9        30.00F WCI   6
WHEATON        CLOUDY    19  14  79 SE7       30.00S WCI  10
MORRIS           N/A     18  10  73 SE9       29.98F WCI   6
ALEXANDRIA     CLOUDY    18   7  62 S5        29.99R WCI  11
ELBOW LAKE       N/A     17   9  71 SE12      29.97F WCI   4
WADENA         CLOUDY    16   7  67 SE3       29.97S
GLENWOOD       PTSUNNY   16   9  73 S3        29.99F
APPLETON       MOSUNNY   23  12  63 S5        30.00F WCI  17
BENSON         CLOUDY    18   9  68 S6        30.01S WCI   9
ORTONVILLE     CLOUDY    23  12  63 SE7       29.97F WCI  15
MADISON        MOSUNNY   27  18  69 S6        30.01S WCI  20
WILLMAR        FAIR      18   9  68 S7        30.04R WCI   8
$$
MNZ033>034-036-042>043-049>051-058-059-251800-
   Central Minnesota

CITY           SKY/WX    TMP DP  RH WIND       PRES   REMARKS
ST CLOUD       CLOUDY    15   8  73 SW3       30.05R
SAUK CENTRE    CLOUDY    16   6  66 S3        30.01S
PAYNESVILLE    CLOUDY    14   5  67 CALM      30.03S
AITKIN         CLOUDY    14   9  79 CALM      30.00R
PINE RIVER     CLOUDY    12   7  79 CALM      30.02S
BRAINERD       CLOUDY    12   8  84 CALM      30.01R
STAPLES        CLOUDY    14   7  73 CALM      29.99S
LONG PRAIRIE   CLOUDY    16   9  73 SE3       30.01R
LITTLE FALLS   PTSUNNY   14   9  79 CALM      30.03S
LITCHFIELD     CLOUDY    18  12  79 CALM      30.04S
BUFFALO        CLOUDY    16   9  75 SW3       30.08R
MAPLE LAKE     CLOUDY    16  11  80 CALM      30.06S
$$
MNZ037-044-045-052-053-251800-
   East Central Minnesota

CITY           SKY/WX    TMP DP  RH WIND       PRES   REMARKS
PRINCETON      CLOUDY    16   9  73 CALM      30.05R
MORA           CLOUDY    14   9  79 SW3       30.06R
CAMBRIDGE      CLOUDY    16   7  67 CALM      30.05R
RUSH CITY      CLOUDY    14   9  80 CALM      30.06R
MOOSE LAKE     CLOUDY    16   9  73 W5        30.01R WCI   9
HINCKLEY       CLOUDY    16  10  79 CALM      30.04R
CLOQUET        MOSUNNY   16   9  73 CALM      29.98S
MCGREGOR       CLOUDY    14   9  79 W3        30.02R
$$
MNZ071>073-080-081-089-090-097-098-251800-
   Southwest Minnesota

CITY           SKY/WX    TMP DP  RH WIND       PRES   REMARKS
MONTEVIDEO     CLOUDY    21  10  63 S6        30.03S WCI  14
GRANITE FALLS  CLOUDY    22  11  61 SE7       30.04S WCI  14
CANBY          CLOUDY    28  17  61 CALM      30.01R
MARSHALL       CLOUDY    28  12  50 SW9       30.01S WCI  20
REDWOOD FALLS  CLOUDY    22   8  55 S8        30.05R WCI  12
OLIVIA         SUNNY     21  10  63 S7        30.04R WCI  13
PIPESTONE      MOSUNNY   27  12  54 SW12      29.99F WCI  16
WINDOM         CLOUDY    25   9  50 CALM      30.03F
WORTHINGTON    CLOUDY    25   9  50 SW8       30.03F WCI  16
JACKSON        MOSUNNY   27   9  46 SW7       30.05S WCI  19
TRACY          CLOUDY    28  14  54 SW13      30.01S WCI  17
SLAYTON        CLOUDY    26  10  50 S7        30.01F WCI  18
$$
MNZ065>067-074>077-082>085-091>093-251800-
   South Central Minnesota

CITY           SKY/WX    TMP DP  RH WIND       PRES   REMARKS
MANKATO        PTSUNNY   18   7  62 W5        30.07S WCI  11
NEW ULM        CLOUDY    19   9  63 S3        30.06F
ST JAMES       SUNNY     25   3  39 SW6       30.08S WCI  18
FAIRMONT       SUNNY     25   5  42 CALM      30.07S
GLENCOE        CLOUDY    19  13  80 CALM      30.06S
FARIBAULT      SUNNY     18  10  73 W3        30.07R
OWATONNA       SUNNY     18  10  73 SW5       30.06R WCI  11
WASECA         SUNNY     19  10  68 SW7       30.09R WCI  10
ALBERT LEA     SUNNY     19  10  68 W5        30.06S WCI  13
$$
MNZ078>079-086>088-094>096-251800-
   Southeast Minnesota

CITY           SKY/WX    TMP DP  RH WIND       PRES   REMARKS
ROCHESTER      SUNNY     16  10  77 W7        30.06R WCI   6
RED WING       FAIR      19  10  68 W5        30.07S WCI  13
STANTON        SUNNY     18  10  73 SW6       30.06S WCI   9
DODGE CENTER   SUNNY     16  10  79 W6        30.05R WCI   7
WINONA         SUNNY     21  12  68 NW5       30.09F WCI  15
AUSTIN         SUNNY     18  10  73 W3        30.06S
PRESTON        SUNNY     15  10  79 W7        30.06R WCI   5
$$
ABBREVIATIONS USED IN REMARKS
   TC - TEMPERATURES IN CELSIUS
  WCI - WIND CHILL INDEX
   HX - HEAT INDEX
  VSB - VISIBILITY
$$



USA.gov is the U.S. government's official web portal to all federal, state and local government web resources and services.